This is the latest recevied weather packets stored in our database for station/object KC4BAM. If no packets are shown the sender has not sent any weather packets the latest 1 day(s).
| Time | Temp. | Humidity | Pressure | Rain* | Wind** | Luminosity | Snow |
|---|---|---|---|---|---|---|---|
| 1778016161 | 22.78° C | 56% | 998.4 hPa | 0 mm | 4.02 m/s, 246° | 141 W/m² | - |
| 1778015858 | 23.33° C | 56% | 998.7 hPa | 0 mm | 4.02 m/s, 193° | 253 W/m² | - |
| 1778015555 | 23.89° C | 57% | 998.4 hPa | 0 mm | 3.13 m/s, 211° | 139 W/m² | - |
| 1778015251 | 22.78° C | 58% | 998.6 hPa | 0 mm | 2.68 m/s, 221° | 253 W/m² | - |
| 1778014948 | 22.78° C | 58% | 998.5 hPa | 0 mm | 4.47 m/s, 248° | 238 W/m² | - |
| 1778014646 | 22.78° C | 58% | 998.6 hPa | 0 mm | 2.68 m/s, 198° | 141 W/m² | - |
| 1778014344 | 23.33° C | 58% | 998.8 hPa | 0 mm | 3.58 m/s, 213° | 121 W/m² | - |
| 1778014040 | 23.33° C | 58% | 998.8 hPa | 0 mm | 3.58 m/s, 206° | 460 W/m² | - |
| 1778013738 | 23.33° C | 58% | 998.6 hPa | 0 mm | 4.47 m/s, 196° | 141 W/m² | - |
| 1778013435 | 23.33° C | 58% | 998.8 hPa | 0 mm | 3.13 m/s, 211° | 185 W/m² | - |
| 1778013132 | 23.33° C | 59% | 998.7 hPa | 0 mm | 1.79 m/s, 208° | 530 W/m² | - |
| 1778012828 | 23.89° C | 58% | 998.5 hPa | 0 mm | 2.68 m/s, 209° | 175 W/m² | - |
| 1778012524 | 23.89° C | 57% | 998.5 hPa | 0 mm | 1.79 m/s, 197° | 337 W/m² | - |
| 1778012220 | 23.33° C | 59% | 998.5 hPa | 0 mm | 2.68 m/s, 238° | 491 W/m² | - |
| 1778011927 | 22.78° C | 59% | 998.8 hPa | 0 mm | 2.68 m/s, 170° | 139 W/m² | - |
| 1778011616 | 23.33° C | 58% | 998.7 hPa | 0 mm | 2.24 m/s, 221° | 147 W/m² | - |
| 1778011313 | 23.33° C | 58% | 998.9 hPa | 0 mm | 2.24 m/s, 208° | 184 W/m² | - |
| 1778011008 | 22.78° C | 58% | 998.9 hPa | 0 mm | 4.47 m/s, 229° | 417 W/m² | - |
| 1778010706 | 23.33° C | 58% | 998.9 hPa | 0 mm | 2.24 m/s, 225° | 351 W/m² | - |
| 1778010403 | 22.78° C | 58% | 999.2 hPa | 0 mm | 3.58 m/s, 206° | 250 W/m² | - |
| 1778010099 | 22.78° C | 58% | 999.3 hPa | 0 mm | 3.13 m/s, 223° | 246 W/m² | - |
| 1778009796 | 22.78° C | 57% | 999.3 hPa | 0 mm | 3.13 m/s, 179° | 182 W/m² | - |
| 1778009493 | 22.78° C | 58% | 999.4 hPa | 0 mm | 2.68 m/s, 169° | 725 W/m² | - |
| 1778009192 | 23.33° C | 56% | 999.4 hPa | 0 mm | 3.13 m/s, 219° | 278 W/m² | - |
| 1778008889 | 22.78° C | 56% | 999.5 hPa | 0 mm | 4.92 m/s, 240° | 252 W/m² | - |
* Rain latest hour (hover to see other rain measurements)
** Current wind speed in m/s (hover to see current wind gust speed)